If you wish to contribute or participate in the discussions about articles you are invited to join SKYbrary as a registered user

 Actions

Panama Pacifico International

From SKYbrary Wiki

MPPA
Airport
ICAO: MPPA – IATA: BLB
Summary
Name Panama Pacifico International
Region South America and Caribbean
Territory Panama PA.gif
Location Balboa, Panama
Serving Panama Canal Zone
Elevation 15.85 m
52 ft15.85 m
Coordinates 8° 55' 11.35" N, 79° 35' 40.26" W
Runways
Designator Length Width Surface ROPS


METAR
Observation MPPA 061800Z 18007KT 9999 SCT018TCU SCT080 30/26 Q1012
Station PANAMA PACIFICO
Date/Time 06 June 2020 18:00:00
Wind direction 180°
Wind speed 07 kts
Lowest cloud amount scattered clouds
Temperature 30°C
Dew point 26°C
Humidity 79%
QNH 1012 hPa
Weather condition n/a

Commercial airport in Panama. It is located on the site of the former Howard Air Force Base, a United States Air Force base which had been within the Panama Canal Zone.

Climatology

Tropical savannah climate (Köppen climate classification Aw)

Maps

Terrain

Loading map...

Airport Layout

Loading map...


Accidents & Serious Incidents at or in vicinity of MPPA

None on SKYbrary